#timestamp,LO_Frequency,Hit,StdDev 
1458046815.1,286046993.4,Y
1458046835.9,286047003.8,P
1458046855.7,286047002.1,N
1458046875.5,286047001.7,N
1458046895.4,286047001.9,N
1458046915.2,286047004.1,N
1458046935.0,286047004.0,N
1458046935.9,286047004.0,N
1458046955.8,286047000.0,N
1458046975.6,286047000.2,N
1458046995.4,286047002.6,N
1458047015.3,286047000.9,N
1458047035.1,286047000.8,N
1458047036.0,286047000.8,N
1458047055.8,286046997.4,N
1458047075.6,286046996.8,N
1458047095.5,286046997.2,N
1458047115.3,286046999.5,N
1458047135.1,286046997.9,N
1458047155.9,286046993.3,N
1458047175.7,286046991.9,N
1458047195.5,286046992.1,N
1458047215.4,286046993.7,N
1458047235.2,286046997.6,N
1458047255.0,286046992.2,N
1458047255.9,286046992.2,N
1458047275.8,286046994.4,N
1458047295.6,286047001.2,N
1458047315.4,286046997.3,N
1458047335.3,286046996.6,N
1458047355.1,286047002.7,N
1458047356.0,286047002.7,N
1458047375.8,286046999.7,N
1458047395.7,286047000.3,N
1458047415.5,286047004.2,N
1458047435.3,286047007.7,N
1458047455.1,286047009.6,N
1458047475.9,286047008.7,N
1458047495.7,286047009.0,N
1458047515.5,286047006.4,N
1458047535.4,286047008.0,N
1458047555.2,286047009.7,N
1458047575.0,286047013.1,N
1458047575.9,286047013.1,N
1458047595.8,286047014.0,N
1458047615.6,286047009.9,N
1458047635.4,286047010.3,N
1458047655.3,286047012.4,N
1458047675.1,286047009.4,N
1458047676.0,286047009.4,N
1458047695.8,286047011.8,N
1458047715.7,286047008.4,N
1458047735.5,286047008.1,N
1458047755.3,286047014.0,N
1458047775.2,286047011.5,N
1458047795.9,286047015.3,N
1458047815.7,286047016.3,N
1458047835.6,286047015.7,Y
1458047855.4,286047005.2,P
1458047875.2,286047000.2,N
1458047895.1,286046997.0,N
1458047896.0,286046997.0,N
1458047915.8,286046997.6,N
1458047935.6,286046996.1,N
1458047955.4,286046994.8,N
1458047975.3,286046997.3,N
1458047995.1,286046998.7,N
1458048015.8,286046999.3,N
1458048035.7,286046995.5,N
1458048055.5,286046996.3,N
1458048075.3,286046994.1,N
1458048095.2,286046992.3,N
1458048115.9,286046990.7,N
1458048135.7,286046990.2,N
1458048155.6,286046992.6,N
1458048175.4,286046993.5,N
1458048195.2,286046994.8,N
1458048215.1,286046990.4,N
1458048216.0,286046990.4,N
1458048235.8,286046985.3,Y
1458048255.6,286046994.5,P
1458048275.5,286046993.7,P
1458048295.3,286046994.3,P
1458048315.1,286046996.3,Y
1458048335.9,286047001.6,P
1458048355.7,286047004.3,N
1458048375.5,286047002.4,N
1458048395.4,286047000.4,N
1458048415.2,286047000.9,N
1458048435.0,286047003.3,N
1458048435.9,286047003.3,N
1458048455.8,286047007.6,N
1458048475.6,286047008.3,N
1458048495.4,286047008.8,N
1458048515.2,286047006.1,N
1458048535.1,286047004.9,N
1458048536.0,286047004.9,N
1458048555.8,286047007.4,N
1458048575.6,286047004.5,N
1458048595.5,286047002.9,N
1458048615.3,286047002.4,N
1458048635.1,286047001.9,N
1458048655.9,286046999.8,N
1458048675.7,286047002.3,N
1458048695.5,286047002.3,N
1458048715.4,286047000.7,N
1458048735.2,286047000.3,N
1458048755.0,286047005.2,N
1458048755.9,286047005.2,N
1458048775.8,286047007.3,N
1458048795.6,286047005.9,N
1458048815.4,286047003.3,N
1458048835.3,286047002.3,N
1458048855.1,286047001.9,N
1458048856.0,286047001.9,N
1458048875.8,286047000.5,N
1458048895.6,286047002.5,N
1458048915.5,286047000.8,N
1458048935.3,286047002.4,N
1458048955.1,286046999.1,N
1458048975.9,286046998.1,N
1458048995.7,286046996.5,N
1458049015.5,286046998.9,N
1458049035.1,286046998.3,N
1458049036.0,286046998.3,N
1458049055.8,286046995.0,N
1458049075.6,286046996.4,N
1458049095.5,286046996.3,N
1458049115.3,286046992.0,N
1458049135.1,286046997.9,N
1458049155.9,286046997.6,N
1458049175.7,286046997.9,N
1458049195.5,286046996.0,N
1458049215.4,286046995.4,N
1458049235.2,286046999.3,N
1458049255.0,286046995.4,N
1458049255.9,286046995.4,N
1458049275.8,286046994.4,N
1458049295.6,286046994.2,N
1458049315.4,286046996.4,N
1458049335.3,286046993.8,N
1458049355.1,286046993.3,N
1458049356.0,286046993.3,N
1458049375.8,286046994.2,N
1458049395.7,286046995.5,N
1458049415.5,286046999.5,N
1458049435.3,286047001.5,N
1458049455.2,286047003.1,N
1458049475.9,286047002.1,N
1458049495.7,286046999.6,N
1458049515.5,286046997.4,N
1458049535.4,286046999.3,N
1458049555.2,286046997.1,N
1458049575.0,286046997.2,N
1458049575.9,286046997.2,N
1458049595.8,286046995.0,N
1458049615.6,286046998.9,N
1458049635.4,286047002.2,N
1458049655.3,286047002.4,N
1458049675.1,286047000.7,N
1458049695.8,286046996.5,N
1458049715.7,286046998.8,N
1458049735.5,286047000.0,N
1458049755.3,286047001.0,N
1458049775.2,286046997.7,N
1458049795.9,286046995.2,N
1458049815.7,286046999.5,N
1458049835.6,286046997.2,N
1458049855.4,286046997.8,N
1458049875.2,286047004.1,N
1458049895.0,286047004.8,N
1458049895.9,286047004.8,N
1458049915.8,286047004.6,N
1458049935.6,286047006.7,N
1458049955.4,286047007.5,N
1458049975.3,286047002.0,N
1458049995.1,286047002.4,N
1458050015.8,286047004.4,N
1458050035.7,286047003.7,N
1458050055.5,286047006.0,N
1458050075.3,286047005.9,N
1458050095.2,286047005.3,N
1458050115.9,286047003.3,N
1458050135.7,286047003.4,N
1458050155.6,286047002.3,N
1458050175.4,286046995.1,N
1458050195.2,286047001.1,N
1458050215.1,286047003.8,N
1458050216.0,286047003.8,N
1458050235.8,286047002.0,N
1458050255.6,286046998.4,N
1458050275.4,286047001.3,N
1458050295.3,286047002.5,N
1458050315.1,286047001.6,N
1458050335.8,286047001.6,N
1458050355.7,286047007.6,N
1458050375.5,286047005.7,N
1458050395.3,286047005.7,N
